Regional Weather Roundup
Issued by NWS

Home | Current Version | Previous Version | Graphics & Text | Print | Product List | Glossary On
Versions: 1 2 3 4 5 6 7 8 9 10 11 12 13 14 15 16 17 18 19 20 21 22 23 24 25 26 27 28 29 30 31 32 33 34 35 36 37 38 39 40 41 42 43 44 45 46 47 48 49 50
000
ASUS43 KLMK 272010
RWRKY
KENTUCKY REGIONAL WEATHER ROUNDUP
NATIONAL WEATHER SERVICE LOUISVILLE KY
300 PM EST TUE JAN 27 2015

NOTE "FAIR" INDICATES FEW OR NO CLOUDS BELOW 12,000 FEET
WITH NO SIGNIFICANT WEATHER AND/OR OBSTRUCTIONS TO VISIBILITY.

KYZ001>023-026-027-061>063-070>075-272100-
WESTERN AND SOUTH CENTRAL KENTUCKY

CITY           SKY/WX    TMP DP  RH WIND       PRES   REMARKS
PADUCAH        CLOUDY    44  30  57 N7        30.12S
HENDERSON      CLOUDY    36  28  75 N6        30.13R WCI  31
OWENSBORO      CLOUDY    35  31  86 N7        30.13R WCI  29
HOPKINSVILLE   CLOUDY    38  30  72 N8        30.10S WCI  32
BOWLING GREEN  CLOUDY    35  30  82 NW6       30.10S WCI  30
GLASGOW        CLOUDY    33  29  86 N7        30.08S WCI  27
$$

KYZ024-025-028>034-038-045-046-053-272100-
NORTH CENTRAL KENTUCKY

CITY           SKY/WX    TMP DP  RH WIND       PRES   REMARKS
LOUISVILLE/SDF CLOUDY    35  22  58 N9        30.10R WCI  28
LOUISVILLE/LOU CLOUDY    34  21  59 N8        30.10R WCI  27
FORT KNOX      CLOUDY    32  26  78 N3        30.08R
$$

KYZ035>037-039>044-047>052-055>060-089>105-272100-
NORTHEAST KENTUCKY

CITY           SKY/WX    TMP DP  RH WIND       PRES   REMARKS
LEXINGTON      SUNNY     32  18  56 NW8       30.06R WCI  25
COVINGTON      SUNNY     31  13  47 N13       30.08R WCI  21
FRANKFORT      SUNNY     34  15  46 NE6       30.06R WCI  29
$$

KYZ054-064>069-076>088-106>120-272100-
SOUTHEAST KENTUCKY

CITY           SKY/WX    TMP DP  RH WIND       PRES   REMARKS
JACKSON        MOSUNNY   35   8  32 MISG      29.98S
LONDON         CLOUDY    33  21  61 N7        30.01S WCI  27
SOMERSET       CLOUDY    32  25  74 N5        30.06S WCI  27
MIDDLESBORO    CLOUDY    32  26  77 NW9       30.02R WCI  24
MONTICELLO     CLOUDY    32  28  85 N6        30.08R WCI  26
$$



USA.gov is the U.S. government's official web portal to all federal, state and local government web resources and services.